Time,TemperatureF,DewpointF,PressureIn,WindDirection,WindDirectionDegrees,WindSpeedMPH,WindSpeedGustMPH,Humidity,HourlyPrecipIn,Conditions,Clouds,dailyrainin,SoftwareType,DateUTC
2013-08-09 00:01:00,74.9,71.4,29.94,NNW,331,3.0,5.0,89,0.00,,---,0.00,VWS V14.00,2013-08-09 05:01:00,
2013-08-09 00:06:00,74.6,71.2,29.93,NNW,331,7.0,7.0,89,0.00,,---,0.00,VWS V14.00,2013-08-09 05:06:00,
2013-08-09 00:11:00,74.6,71.2,29.93,NNW,348,5.0,7.0,89,0.00,,---,0.00,VWS V14.00,2013-08-09 05:11:00,
2013-08-09 00:16:00,74.4,70.9,29.93,North,355,0.0,2.0,89,0.00,,---,0.00,VWS V14.00,2013-08-09 05:16:00,
2013-08-09 00:21:00,74.2,70.8,29.93,North,355,1.0,5.0,89,0.00,,---,0.00,VWS V14.00,2013-08-09 05:21:00,
2013-08-09 00:26:00,74.0,70.6,29.93,North,355,2.0,4.0,89,0.00,,---,0.00,VWS V14.00,2013-08-09 05:26:00,
2013-08-09 00:31:00,74.0,70.6,29.93,North,355,0.0,1.0,89,0.00,,---,0.00,VWS V14.00,2013-08-09 05:31:00,
2013-08-09 00:36:00,74.0,70.6,29.93,North,355,0.0,0.0,89,0.00,,---,0.00,VWS V14.00,2013-08-09 05:36:00,
2013-08-09 00:41:00,73.9,70.5,29.92,North,355,0.0,0.0,89,0.00,,---,0.00,VWS V14.00,2013-08-09 05:41:00,
2013-08-09 00:46:00,73.9,70.8,29.92,North,355,0.0,0.0,90,0.00,,---,0.00,VWS V14.00,2013-08-09 05:46:00,
2013-08-09 00:51:00,73.9,70.8,29.92,North,355,0.0,0.0,90,0.00,,---,0.00,VWS V14.00,2013-08-09 05:51:00,
2013-08-09 00:56:00,73.7,70.6,29.93,North,355,0.0,0.0,90,0.00,,---,0.00,VWS V14.00,2013-08-09 05:56:00,
2013-08-09 01:01:00,73.7,70.6,29.93,North,355,0.0,0.0,90,0.00,,---,0.00,VWS V14.00,2013-08-09 06:01:00,
2013-08-09 01:06:00,73.7,70.6,29.92,North,355,0.0,0.0,90,0.00,,---,0.00,VWS V14.00,2013-08-09 06:06:00,
2013-08-09 01:11:00,73.5,70.4,29.92,North,355,0.0,0.0,90,0.00,,---,0.00,VWS V14.00,2013-08-09 06:11:00,
2013-08-09 01:16:00,73.5,70.4,29.92,North,355,0.0,0.0,90,0.00,,---,0.00,VWS V14.00,2013-08-09 06:16:00,
2013-08-09 01:21:00,73.3,70.2,29.92,North,355,0.0,0.0,90,0.00,,---,0.00,VWS V14.00,2013-08-09 06:21:00,
2013-08-09 01:26:00,73.3,70.2,29.92,North,355,0.0,0.0,90,0.00,,---,0.00,VWS V14.00,2013-08-09 06:26:00,
2013-08-09 01:31:00,73.2,70.1,29.92,North,355,0.0,0.0,90,0.00,,---,0.00,VWS V14.00,2013-08-09 06:31:00,
2013-08-09 01:36:00,73.0,69.9,29.92,North,355,0.0,0.0,90,0.00,,---,0.00,VWS V14.00,2013-08-09 06:36:00,
2013-08-09 01:41:00,73.0,70.2,29.92,North,355,0.0,0.0,91,0.00,,---,0.00,VWS V14.00,2013-08-09 06:41:00,
2013-08-09 01:46:00,73.0,70.2,29.92,North,355,0.0,0.0,91,0.00,,---,0.00,VWS V14.00,2013-08-09 06:46:00,
2013-08-09 01:51:00,73.0,70.2,29.93,North,355,0.0,0.0,91,0.00,,---,0.00,VWS V14.00,2013-08-09 06:51:00,
2013-08-09 01:56:00,72.8,70.0,29.93,North,355,0.0,0.0,91,0.00,,---,0.00,VWS V14.00,2013-08-09 06:56:00,
2013-08-09 02:01:00,72.7,69.9,29.92,North,355,0.0,0.0,91,0.00,,---,0.00,VWS V14.00,2013-08-09 07:01:00,
2013-08-09 02:06:00,72.7,69.9,29.91,North,355,0.0,0.0,91,0.00,,---,0.00,VWS V14.00,2013-08-09 07:06:00,
2013-08-09 02:11:00,72.7,69.9,29.91,North,355,0.0,0.0,91,0.00,,---,0.00,VWS V14.00,2013-08-09 07:11:00,
2013-08-09 02:16:00,72.7,69.9,29.91,North,355,0.0,0.0,91,0.00,,---,0.00,VWS V14.00,2013-08-09 07:16:00,
2013-08-09 02:21:00,72.8,70.0,29.90,North,355,3.0,5.0,91,0.00,,---,0.00,VWS V14.00,2013-08-09 07:21:00,
2013-08-09 02:26:00,73.2,70.4,29.90,North,355,3.0,5.0,91,0.00,,---,0.00,VWS V14.00,2013-08-09 07:26:00,
2013-08-09 02:31:00,73.2,70.4,29.90,North,355,4.0,4.0,91,0.00,,---,0.00,VWS V14.00,2013-08-09 07:31:00,
2013-08-09 02:36:00,73.2,70.4,29.90,North,355,0.0,1.0,91,0.00,,---,0.00,VWS V14.00,2013-08-09 07:36:00,
2013-08-09 02:41:00,73.2,70.4,29.91,North,355,0.0,0.0,91,0.00,,---,0.00,VWS V14.00,2013-08-09 07:41:00,
2013-08-09 02:46:00,73.0,70.2,29.90,North,355,0.0,0.0,91,0.00,,---,0.00,VWS V14.00,2013-08-09 07:46:00,
2013-08-09 02:51:00,73.0,70.2,29.90,North,355,0.0,0.0,91,0.00,,---,0.00,VWS V14.00,2013-08-09 07:51:00,
2013-08-09 02:56:00,73.0,70.2,29.91,North,355,0.0,0.0,91,0.00,,---,0.00,VWS V14.00,2013-08-09 07:56:00,
2013-08-09 03:01:00,73.0,70.2,29.90,North,355,0.0,0.0,91,0.00,,---,0.00,VWS V14.00,2013-08-09 08:01:00,
2013-08-09 03:06:00,72.8,70.0,29.91,North,355,0.0,0.0,91,0.00,,---,0.00,VWS V14.00,2013-08-09 08:06:00,
2013-08-09 03:11:00,72.8,70.0,29.92,North,355,0.0,0.0,91,0.00,,---,0.00,VWS V14.00,2013-08-09 08:11:00,
2013-08-09 03:16:00,72.7,69.9,29.92,North,355,0.0,0.0,91,0.00,,---,0.00,VWS V14.00,2013-08-09 08:16:00,
2013-08-09 03:21:00,72.7,69.9,29.92,North,355,0.0,0.0,91,0.00,,---,0.00,VWS V14.00,2013-08-09 08:21:00,
2013-08-09 03:26:00,72.7,69.9,29.92,North,355,0.0,0.0,91,0.00,,---,0.00,VWS V14.00,2013-08-09 08:26:00,
2013-08-09 03:31:00,72.7,69.9,29.92,North,355,0.0,0.0,91,0.00,,---,0.00,VWS V14.00,2013-08-09 08:31:00,
2013-08-09 03:36:00,72.5,69.7,29.92,North,355,0.0,0.0,91,0.00,,---,0.00,VWS V14.00,2013-08-09 08:36:00,
2013-08-09 03:41:00,72.5,69.7,29.92,North,355,0.0,0.0,91,0.00,,---,0.00,VWS V14.00,2013-08-09 08:41:00,
2013-08-09 03:46:00,72.5,70.1,29.92,North,355,0.0,0.0,92,0.00,,---,0.00,VWS V14.00,2013-08-09 08:46:00,
2013-08-09 03:51:00,72.5,70.1,29.92,North,355,0.0,0.0,92,0.00,,---,0.00,VWS V14.00,2013-08-09 08:51:00,
2013-08-09 03:56:00,72.5,70.1,29.92,North,355,0.0,0.0,92,0.00,,---,0.00,VWS V14.00,2013-08-09 08:56:00,
2013-08-09 04:01:00,72.5,70.1,29.92,North,355,0.0,0.0,92,0.00,,---,0.00,VWS V14.00,2013-08-09 09:01:00,
2013-08-09 04:06:00,72.5,70.1,29.93,North,355,0.0,0.0,92,0.00,,---,0.00,VWS V14.00,2013-08-09 09:06:00,
2013-08-09 04:11:00,72.5,70.1,29.93,North,355,0.0,0.0,92,0.00,,---,0.00,VWS V14.00,2013-08-09 09:11:00,
2013-08-09 04:16:00,72.5,70.1,29.93,North,355,0.0,0.0,92,0.00,,---,0.00,VWS V14.00,2013-08-09 09:16:00,
2013-08-09 04:21:00,72.5,70.1,29.93,North,355,0.0,0.0,92,0.00,,---,0.00,VWS V14.00,2013-08-09 09:21:00,
2013-08-09 04:26:00,72.5,70.1,29.93,North,355,0.0,0.0,92,0.00,,---,0.00,VWS V14.00,2013-08-09 09:26:00,
2013-08-09 04:31:00,72.5,70.1,29.93,North,355,0.0,0.0,92,0.00,,---,0.00,VWS V14.00,2013-08-09 09:31:00,
2013-08-09 04:36:00,72.5,70.1,29.94,North,355,0.0,0.0,92,0.00,,---,0.00,VWS V14.00,2013-08-09 09:36:00,
2013-08-09 04:41:00,72.3,69.8,29.95,North,355,0.0,0.0,92,0.00,,---,0.00,VWS V14.00,2013-08-09 09:41:00,
2013-08-09 04:46:00,72.3,69.8,29.96,North,355,2.0,3.0,92,0.00,,---,0.00,VWS V14.00,2013-08-09 09:46:00,
2013-08-09 04:51:00,72.5,70.1,29.97,North,355,0.0,0.0,92,0.00,,---,0.00,VWS V14.00,2013-08-09 09:51:00,
2013-08-09 04:56:00,72.5,70.1,29.98,North,355,0.0,1.0,92,0.00,,---,0.00,VWS V14.00,2013-08-09 09:56:00,
2013-08-09 05:01:00,72.7,70.2,29.98,North,355,0.0,3.0,92,0.00,,---,0.00,VWS V14.00,2013-08-09 10:01:00,
2013-08-09 05:06:00,72.5,70.1,29.98,North,355,5.0,6.0,92,0.00,,---,0.00,VWS V14.00,2013-08-09 10:06:00,
2013-08-09 05:11:00,72.5,70.1,29.98,North,355,0.0,0.0,92,0.00,,---,0.00,VWS V14.00,2013-08-09 10:11:00,
2013-08-09 05:16:00,72.5,70.1,29.98,North,355,2.0,2.0,92,0.00,,---,0.00,VWS V14.00,2013-08-09 10:16:00,
2013-08-09 05:21:00,72.3,69.8,29.98,North,355,0.0,0.0,92,0.00,,---,0.00,VWS V14.00,2013-08-09 10:21:00,
2013-08-09 05:26:00,72.1,69.7,29.98,North,355,0.0,0.0,92,0.00,,---,0.00,VWS V14.00,2013-08-09 10:26:00,
2013-08-09 05:31:00,72.1,69.7,29.98,North,355,0.0,0.0,92,0.00,,---,0.00,VWS V14.00,2013-08-09 10:31:00,
2013-08-09 05:36:00,72.0,69.6,29.97,North,355,0.0,0.0,92,0.00,,---,0.00,VWS V14.00,2013-08-09 10:36:00,
2013-08-09 05:41:00,72.0,69.6,29.97,North,355,0.0,0.0,92,0.00,,---,0.00,VWS V14.00,2013-08-09 10:41:00,
2013-08-09 05:46:00,72.0,69.6,29.97,North,355,0.0,0.0,92,0.00,,---,0.00,VWS V14.00,2013-08-09 10:46:00,
2013-08-09 05:51:00,72.0,69.9,29.96,North,355,0.0,0.0,93,0.00,,---,0.00,VWS V14.00,2013-08-09 10:51:00,
2013-08-09 05:56:00,72.0,69.9,29.96,North,355,0.0,0.0,93,0.00,,---,0.00,VWS V14.00,2013-08-09 10:56:00,
2013-08-09 06:01:00,71.8,69.7,29.97,North,355,0.0,0.0,93,0.00,,---,0.00,VWS V14.00,2013-08-09 11:01:00,
2013-08-09 06:06:00,71.8,69.7,29.97,North,355,0.0,0.0,93,0.00,,---,0.00,VWS V14.00,2013-08-09 11:06:00,
2013-08-09 06:11:00,71.8,69.7,29.97,North,355,0.0,0.0,93,0.00,,---,0.00,VWS V14.00,2013-08-09 11:11:00,
2013-08-09 06:16:00,71.8,69.7,29.98,North,355,0.0,0.0,93,0.00,,---,0.00,VWS V14.00,2013-08-09 11:16:00,
2013-08-09 06:21:00,71.8,69.7,29.98,North,355,0.0,0.0,93,0.00,,---,0.00,VWS V14.00,2013-08-09 11:21:00,
2013-08-09 06:26:00,71.8,70.0,29.99,North,355,0.0,0.0,94,0.00,,---,0.00,VWS V14.00,2013-08-09 11:26:00,
2013-08-09 06:31:00,71.8,70.0,29.99,North,355,0.0,1.0,94,0.00,,---,0.00,VWS V14.00,2013-08-09 11:31:00,
2013-08-09 06:36:00,71.8,70.0,29.99,North,355,0.0,0.0,94,0.00,,---,0.00,VWS V14.00,2013-08-09 11:36:00,
2013-08-09 06:41:00,71.8,70.0,29.99,North,355,2.0,2.0,94,0.00,,---,0.00,VWS V14.00,2013-08-09 11:41:00,
2013-08-09 06:46:00,71.8,70.0,29.99,North,355,4.0,4.0,94,0.00,,---,0.00,VWS V14.00,2013-08-09 11:46:00,
2013-08-09 06:51:00,71.8,70.0,29.99,North,355,4.0,7.0,94,0.00,,---,0.00,VWS V14.00,2013-08-09 11:51:00,
2013-08-09 06:56:00,71.6,69.8,29.99,North,355,2.0,3.0,94,0.00,,---,0.00,VWS V14.00,2013-08-09 11:56:00,
2013-08-09 07:01:00,71.6,69.8,29.99,North,355,3.0,5.0,94,0.00,,---,0.00,VWS V14.00,2013-08-09 12:01:00,
2013-08-09 07:06:00,71.5,69.7,29.99,North,355,3.0,4.0,94,0.00,,---,0.00,VWS V14.00,2013-08-09 12:06:00,
2013-08-09 07:11:00,71.3,69.5,29.99,North,355,4.0,5.0,94,0.00,,---,0.00,VWS V14.00,2013-08-09 12:11:00,
2013-08-09 07:16:00,71.3,69.5,29.99,North,355,0.0,0.0,94,0.00,,---,0.00,VWS V14.00,2013-08-09 12:16:00,
2013-08-09 07:21:00,71.1,69.3,29.98,North,355,1.0,1.0,94,0.00,,---,0.00,VWS V14.00,2013-08-09 12:21:00,
2013-08-09 07:26:00,71.1,69.3,29.98,North,355,1.0,5.0,94,0.00,,---,0.00,VWS V14.00,2013-08-09 12:26:00,
2013-08-09 07:31:00,71.1,69.6,29.97,North,360,5.0,5.0,95,0.00,,---,0.00,VWS V14.00,2013-08-09 12:31:00,
2013-08-09 07:36:00,71.1,69.3,29.97,NNE,21,3.0,5.0,94,0.00,,---,0.00,VWS V14.00,2013-08-09 12:36:00,
2013-08-09 07:41:00,70.9,69.1,29.97,NNE,21,0.0,3.0,94,0.00,,---,0.00,VWS V14.00,2013-08-09 12:41:00,
2013-08-09 07:46:00,70.8,69.0,29.97,NNE,21,0.0,3.0,94,0.00,,---,0.00,VWS V14.00,2013-08-09 12:46:00,
2013-08-09 07:51:00,70.9,69.1,29.97,NNE,24,5.0,6.0,94,0.00,,---,0.00,VWS V14.00,2013-08-09 12:51:00,
2013-08-09 07:56:00,71.1,69.3,29.97,NE,34,3.0,3.0,94,0.00,,---,0.00,VWS V14.00,2013-08-09 12:56:00,
2013-08-09 08:01:00,71.1,69.3,29.98,NE,36,0.0,0.0,94,0.00,,---,0.00,VWS V14.00,2013-08-09 13:01:00,
2013-08-09 08:06:00,70.9,69.1,29.99,NE,36,6.0,6.0,94,0.00,,---,0.00,VWS V14.00,2013-08-09 13:06:00,
2013-08-09 08:11:00,71.1,69.3,29.99,NE,44,6.0,7.0,94,0.00,,---,0.00,VWS V14.00,2013-08-09 13:11:00,
2013-08-09 08:16:00,71.1,69.3,29.98,ENE,62,6.0,11.0,94,0.00,,---,0.00,VWS V14.00,2013-08-09 13:16:00,
2013-08-09 08:21:00,71.1,69.3,29.97,SSE,154,5.0,6.0,94,0.00,,---,0.00,VWS V14.00,2013-08-09 13:21:00,
2013-08-09 08:26:00,71.1,69.3,29.97,SE,146,5.0,7.0,94,0.00,,---,0.00,VWS V14.00,2013-08-09 13:26:00,
2013-08-09 08:31:00,71.1,69.0,29.95,SSE,147,6.0,7.0,93,0.00,,---,0.00,VWS V14.00,2013-08-09 13:31:00,
2013-08-09 08:36:00,71.1,69.0,29.94,SE,146,13.0,13.0,93,0.00,,---,0.00,VWS V14.00,2013-08-09 13:36:00,
2013-08-09 08:41:00,71.3,69.2,29.93,SSE,162,6.0,7.0,93,0.00,,---,0.00,VWS V14.00,2013-08-09 13:41:00,
2013-08-09 08:46:00,71.3,68.9,29.93,SSE,161,9.0,9.0,92,0.00,,---,0.00,VWS V14.00,2013-08-09 13:46:00,
2013-08-09 08:51:00,71.3,68.9,29.94,SSE,161,0.0,0.0,92,0.00,,---,0.00,VWS V14.00,2013-08-09 13:51:00,
2013-08-09 08:56:00,71.3,68.9,29.94,SSE,161,2.0,4.0,92,0.00,,---,0.00,VWS V14.00,2013-08-09 13:56:00,
2013-08-09 09:01:00,71.3,68.9,29.94,SSE,161,1.0,4.0,92,0.00,,---,0.00,VWS V14.00,2013-08-09 14:01:00,
2013-08-09 09:06:00,71.3,68.9,29.94,SSE,161,1.0,1.0,92,0.00,,---,0.00,VWS V14.00,2013-08-09 14:06:00,
2013-08-09 09:11:00,71.5,69.1,29.94,SSE,167,6.0,6.0,92,0.00,,---,0.00,VWS V14.00,2013-08-09 14:11:00,
2013-08-09 09:16:00,71.6,69.2,29.94,SSE,167,0.0,1.0,92,0.00,,---,0.00,VWS V14.00,2013-08-09 14:16:00,
2013-08-09 09:21:00,71.8,69.3,29.93,SSE,167,2.0,7.0,92,0.00,,---,0.00,VWS V14.00,2013-08-09 14:21:00,
2013-08-09 09:26:00,72.1,69.3,29.94,SSE,167,3.0,7.0,91,0.00,,---,0.00,VWS V14.00,2013-08-09 14:26:00,
2013-08-09 09:31:00,72.7,69.6,29.93,SSE,165,4.0,6.0,90,0.00,,---,0.00,VWS V14.00,2013-08-09 14:31:00,
2013-08-09 09:36:00,73.2,69.8,29.94,SSE,167,5.0,6.0,89,0.00,,---,0.00,VWS V14.00,2013-08-09 14:36:00,
2013-08-09 09:41:00,73.3,69.5,29.94,SSE,163,5.0,6.0,88,0.00,,---,0.00,VWS V14.00,2013-08-09 14:41:00,
2013-08-09 09:46:00,73.3,69.5,29.94,SSE,163,3.0,4.0,88,0.00,,---,0.00,VWS V14.00,2013-08-09 14:46:00,
2013-08-09 09:51:00,73.5,70.1,29.93,SSE,163,0.0,1.0,89,0.00,,---,0.00,VWS V14.00,2013-08-09 14:51:00,
2013-08-09 09:56:00,73.7,69.9,29.93,SSE,163,3.0,4.0,88,0.00,,---,0.00,VWS V14.00,2013-08-09 14:56:00,
2013-08-09 10:01:00,74.0,70.2,29.92,SSE,163,1.0,4.0,88,0.00,,---,0.00,VWS V14.00,2013-08-09 15:01:00,
2013-08-09 10:06:00,74.2,70.4,29.92,SSE,163,3.0,6.0,88,0.00,,---,0.00,VWS V14.00,2013-08-09 15:06:00,
2013-08-09 10:11:00,74.4,70.3,29.92,SSE,163,3.0,3.0,87,0.00,,---,0.00,VWS V14.00,2013-08-09 15:11:00,
2013-08-09 10:16:00,74.6,70.5,29.92,SSE,163,0.0,1.0,87,0.00,,---,0.00,VWS V14.00,2013-08-09 15:16:00,
2013-08-09 10:21:00,74.6,70.1,29.93,SSE,163,0.0,2.0,86,0.00,,---,0.00,VWS V14.00,2013-08-09 15:21:00,
2013-08-09 10:26:00,74.9,70.4,29.93,SSE,163,1.0,1.0,86,0.00,,---,0.00,VWS V14.00,2013-08-09 15:26:00,
2013-08-09 10:31:00,75.1,70.3,29.93,SSE,163,0.0,0.0,85,0.00,,---,0.00,VWS V14.00,2013-08-09 15:31:00,
2013-08-09 10:36:00,75.3,69.8,29.93,SSE,163,0.0,0.0,83,0.00,,---,0.00,VWS V14.00,2013-08-09 15:36:00,
2013-08-09 10:41:00,75.4,69.9,29.94,SSE,163,0.0,0.0,83,0.00,,---,0.00,VWS V14.00,2013-08-09 15:41:00,
2013-08-09 10:46:00,76.0,70.5,29.93,SSE,163,0.0,0.0,83,0.00,,---,0.00,VWS V14.00,2013-08-09 15:46:00,
2013-08-09 10:51:00,76.3,70.8,29.94,SSE,163,0.0,0.0,83,0.00,,---,0.00,VWS V14.00,2013-08-09 15:51:00,
2013-08-09 10:56:00,76.5,70.2,29.94,SSE,163,0.0,0.0,81,0.00,,---,0.00,VWS V14.00,2013-08-09 15:56:00,
2013-08-09 11:01:00,76.7,70.8,29.94,SSE,163,3.0,3.0,82,0.00,,---,0.00,VWS V14.00,2013-08-09 16:01:00,
2013-08-09 11:06:00,76.8,70.5,29.94,SSE,163,6.0,7.0,81,0.00,,---,0.00,VWS V14.00,2013-08-09 16:06:00,
2013-08-09 11:11:00,77.0,70.7,29.95,SW,214,6.0,6.0,81,0.00,,---,0.00,VWS V14.00,2013-08-09 16:11:00,
2013-08-09 11:16:00,77.2,70.6,29.95,SW,227,4.0,5.0,80,0.00,,---,0.00,VWS V14.00,2013-08-09 16:16:00,
2013-08-09 11:21:00,77.4,70.8,29.95,SW,228,3.0,5.0,80,0.00,,---,0.00,VWS V14.00,2013-08-09 16:21:00,
2013-08-09 11:26:00,77.9,71.2,29.95,SW,234,4.0,5.0,80,0.00,,---,0.00,VWS V14.00,2013-08-09 16:26:00,
2013-08-09 11:31:00,78.1,71.1,29.95,SW,234,6.0,7.0,79,0.00,,---,0.00,VWS V14.00,2013-08-09 16:31:00,
2013-08-09 11:36:00,78.5,71.1,29.95,WSW,253,7.0,7.0,78,0.00,,---,0.00,VWS V14.00,2013-08-09 16:36:00,
2013-08-09 11:41:00,78.6,71.6,29.95,WSW,255,3.0,5.0,79,0.00,,---,0.00,VWS V14.00,2013-08-09 16:41:00,
2013-08-09 11:46:00,78.6,71.9,29.95,WNW,291,10.0,11.0,80,0.00,,---,0.00,VWS V14.00,2013-08-09 16:46:00,
2013-08-09 11:51:00,78.5,71.8,29.95,NW,321,5.0,6.0,80,0.00,,---,0.00,VWS V14.00,2013-08-09 16:51:00,
2013-08-09 11:56:00,78.3,71.6,29.95,NW,321,8.0,10.0,80,0.00,,---,0.00,VWS V14.00,2013-08-09 16:56:00,
2013-08-09 12:01:00,78.1,71.4,29.96,NW,322,4.0,5.0,80,0.00,,---,0.00,VWS V14.00,2013-08-09 17:01:00,
2013-08-09 12:06:00,77.9,71.2,29.96,NW,322,5.0,6.0,80,0.00,,---,0.00,VWS V14.00,2013-08-09 17:06:00,
2013-08-09 12:11:00,77.7,71.0,29.96,NW,325,4.0,5.0,80,0.00,,---,0.00,VWS V14.00,2013-08-09 17:11:00,
2013-08-09 12:16:00,77.7,71.0,29.97,NW,325,8.0,9.0,80,0.00,,---,0.00,VWS V14.00,2013-08-09 17:16:00,
2013-08-09 12:21:00,77.7,71.0,29.97,NW,326,4.0,6.0,80,0.00,,---,0.00,VWS V14.00,2013-08-09 17:21:00,
2013-08-09 12:26:00,77.9,70.9,29.97,NW,326,8.0,8.0,79,0.00,,---,0.00,VWS V14.00,2013-08-09 17:26:00,
2013-08-09 12:31:00,78.1,71.1,29.97,NW,326,6.0,8.0,79,0.00,,---,0.00,VWS V14.00,2013-08-09 17:31:00,
2013-08-09 12:36:00,78.5,71.4,29.97,NW,325,10.0,12.0,79,0.00,,---,0.00,VWS V14.00,2013-08-09 17:36:00,
2013-08-09 12:41:00,78.5,71.1,29.97,NNW,332,11.0,12.0,78,0.00,,---,0.00,VWS V14.00,2013-08-09 17:41:00,
2013-08-09 12:46:00,78.5,71.4,29.97,NNW,333,9.0,11.0,79,0.00,,---,0.00,VWS V14.00,2013-08-09 17:46:00,
2013-08-09 12:51:00,78.8,71.4,29.97,NNW,335,1.0,3.0,78,0.00,,---,0.00,VWS V14.00,2013-08-09 17:51:00,
2013-08-09 12:56:00,78.8,69.0,29.97,NW,323,11.0,11.0,72,0.00,,---,0.00,VWS V14.00,2013-08-09 17:56:00,
2013-08-09 13:01:00,79.0,69.2,29.98,NW,319,9.0,12.0,72,0.00,,---,0.00,VWS V14.00,2013-08-09 18:01:00,
2013-08-09 13:06:00,79.4,70.0,29.98,NW,319,6.0,8.0,73,0.00,,---,0.00,VWS V14.00,2013-08-09 18:06:00,
2013-08-09 13:11:00,79.6,69.8,29.98,NW,319,0.0,0.0,72,0.00,,---,0.00,VWS V14.00,2013-08-09 18:11:00,
2013-08-09 13:16:00,79.9,70.1,29.98,NW,319,7.0,7.0,72,0.00,,---,0.00,VWS V14.00,2013-08-09 18:16:00,
2013-08-09 13:21:00,79.8,70.4,29.98,NW,321,5.0,6.0,73,0.00,,---,0.00,VWS V14.00,2013-08-09 18:21:00,
2013-08-09 13:26:00,79.8,71.2,29.98,NW,325,6.0,6.0,75,0.00,,---,0.00,VWS V14.00,2013-08-09 18:26:00,
2013-08-09 13:31:00,79.8,71.6,29.98,NW,325,6.0,11.0,76,0.00,,---,0.00,VWS V14.00,2013-08-09 18:31:00,
2013-08-09 13:36:00,79.8,71.6,29.98,NW,325,9.0,9.0,76,0.00,,---,0.00,VWS V14.00,2013-08-09 18:36:00,
2013-08-09 13:41:00,79.6,71.4,29.98,NW,325,5.0,7.0,76,0.00,,---,0.00,VWS V14.00,2013-08-09 18:41:00,
2013-08-09 13:46:00,79.6,71.0,29.98,NW,325,4.0,5.0,75,0.00,,---,0.00,VWS V14.00,2013-08-09 18:46:00,
2013-08-09 13:51:00,79.4,70.4,29.98,NW,325,7.0,10.0,74,0.00,,---,0.00,VWS V14.00,2013-08-09 18:51:00,
2013-08-09 13:56:00,79.4,70.4,29.98,NNW,330,5.0,10.0,74,0.00,,---,0.00,VWS V14.00,2013-08-09 18:56:00,
2013-08-09 14:01:00,79.2,70.2,29.98,NNW,331,5.0,6.0,74,0.00,,---,0.00,VWS V14.00,2013-08-09 19:01:00,
2013-08-09 14:06:00,79.0,69.6,29.98,NNW,335,7.0,7.0,73,0.00,,---,0.00,VWS V14.00,2013-08-09 19:06:00,
2013-08-09 14:11:00,79.0,69.6,29.98,NNW,335,5.0,10.0,73,0.00,,---,0.00,VWS V14.00,2013-08-09 19:11:00,
2013-08-09 14:16:00,79.0,69.6,29.98,NNW,332,2.0,5.0,73,0.00,,---,0.00,VWS V14.00,2013-08-09 19:16:00,
2013-08-09 14:21:00,78.8,70.6,29.98,NNW,333,5.0,11.0,76,0.00,,---,0.00,VWS V14.00,2013-08-09 19:21:00,
2013-08-09 14:26:00,78.8,69.4,29.97,NNW,333,5.0,5.0,73,0.00,,---,0.00,VWS V14.00,2013-08-09 19:26:00,
2013-08-09 14:31:00,79.2,70.2,29.97,NNW,333,5.0,7.0,74,0.00,,---,0.00,VWS V14.00,2013-08-09 19:31:00,
2013-08-09 14:36:00,79.4,70.0,29.97,NNW,330,6.0,9.0,73,0.00,,---,0.00,VWS V14.00,2013-08-09 19:36:00,
2013-08-09 14:41:00,79.6,69.8,29.96,NNW,330,7.0,7.0,72,0.00,,---,0.00,VWS V14.00,2013-08-09 19:41:00,
2013-08-09 14:46:00,79.6,69.4,29.95,NNW,330,3.0,3.0,71,0.00,,---,0.00,VWS V14.00,2013-08-09 19:46:00,
2013-08-09 14:51:00,79.6,69.4,29.95,NNW,330,3.0,4.0,71,0.00,,---,0.00,VWS V14.00,2013-08-09 19:51:00,
2013-08-09 14:56:00,79.6,69.0,29.95,NNW,330,3.0,5.0,70,0.00,,---,0.00,VWS V14.00,2013-08-09 19:56:00,
2013-08-09 15:01:00,79.8,69.6,29.96,NNW,330,0.0,4.0,71,0.00,,---,0.00,VWS V14.00,2013-08-09 20:01:00,
2013-08-09 15:06:00,80.1,70.3,29.96,NNW,330,0.0,0.0,72,0.00,,---,0.00,VWS V14.00,2013-08-09 20:06:00,
2013-08-09 15:11:00,80.5,69.4,29.95,NNW,330,3.0,5.0,69,0.00,,---,0.00,VWS V14.00,2013-08-09 20:11:00,
2013-08-09 15:16:00,80.5,69.8,29.95,NNW,330,5.0,6.0,70,0.00,,---,0.00,VWS V14.00,2013-08-09 20:16:00,
2013-08-09 15:21:00,80.7,70.4,29.96,NNW,330,4.0,6.0,71,0.00,,---,0.00,VWS V14.00,2013-08-09 20:21:00,
2013-08-09 15:26:00,80.7,70.0,29.96,NNW,330,1.0,3.0,70,0.00,,---,0.00,VWS V14.00,2013-08-09 20:26:00,
2013-08-09 15:31:00,80.9,70.6,29.95,NNW,330,2.0,2.0,71,0.00,,---,0.00,VWS V14.00,2013-08-09 20:31:00,
2013-08-09 15:36:00,81.4,71.1,29.95,NNW,330,2.0,3.0,71,0.00,,---,0.00,VWS V14.00,2013-08-09 20:36:00,
2013-08-09 15:41:00,81.4,70.3,29.96,NNW,330,2.0,4.0,69,0.00,,---,0.00,VWS V14.00,2013-08-09 20:41:00,
2013-08-09 15:46:00,81.1,70.0,29.96,NNW,330,4.0,4.0,69,0.00,,---,0.00,VWS V14.00,2013-08-09 20:46:00,
2013-08-09 15:51:00,80.9,69.8,29.96,NNW,330,6.0,6.0,69,0.00,,---,0.00,VWS V14.00,2013-08-09 20:51:00,
2013-08-09 15:56:00,80.9,69.8,29.96,NNW,330,3.0,3.0,69,0.00,,---,0.00,VWS V14.00,2013-08-09 20:56:00,
2013-08-09 16:01:00,80.7,69.2,29.96,NNW,330,4.0,6.0,68,0.00,,---,0.00,VWS V14.00,2013-08-09 21:01:00,
2013-08-09 16:06:00,80.7,69.6,29.96,NNW,330,0.0,0.0,69,0.00,,---,0.00,VWS V14.00,2013-08-09 21:06:00,
2013-08-09 16:11:00,80.7,70.0,29.95,NNW,330,0.0,0.0,70,0.00,,---,0.00,VWS V14.00,2013-08-09 21:11:00,
2013-08-09 16:16:00,80.7,70.0,29.96,NNW,330,0.0,0.0,70,0.00,,---,0.00,VWS V14.00,2013-08-09 21:16:00,
2013-08-09 16:21:00,80.5,69.8,29.95,NNW,330,1.0,4.0,70,0.00,,---,0.00,VWS V14.00,2013-08-09 21:21:00,
2013-08-09 16:26:00,80.7,69.6,29.96,NNW,330,0.0,0.0,69,0.00,,---,0.00,VWS V14.00,2013-08-09 21:26:00,
2013-08-09 16:31:00,80.9,69.8,29.96,NNW,330,3.0,4.0,69,0.00,,---,0.00,VWS V14.00,2013-08-09 21:31:00,
2013-08-09 16:36:00,80.9,69.4,29.96,NNW,330,0.0,2.0,68,0.00,,---,0.00,VWS V14.00,2013-08-09 21:36:00,
2013-08-09 16:41:00,80.9,68.9,29.95,NNW,330,2.0,2.0,67,0.00,,---,0.00,VWS V14.00,2013-08-09 21:41:00,
2013-08-09 16:46:00,80.7,69.2,29.95,NNW,330,0.0,0.0,68,0.00,,---,0.00,VWS V14.00,2013-08-09 21:46:00,
2013-08-09 16:51:00,80.5,69.0,29.95,NNW,330,1.0,2.0,68,0.00,,---,0.00,VWS V14.00,2013-08-09 21:51:00,
2013-08-09 16:56:00,80.1,68.6,29.95,NNW,330,0.0,0.0,68,0.00,,---,0.00,VWS V14.00,2013-08-09 21:56:00,
2013-08-09 17:01:00,79.9,69.7,29.95,NNW,330,0.0,0.0,71,0.00,,---,0.00,VWS V14.00,2013-08-09 22:01:00,
2013-08-09 17:06:00,80.1,71.1,29.95,NNW,330,0.0,0.0,74,0.00,,---,0.00,VWS V14.00,2013-08-09 22:06:00,
2013-08-09 17:11:00,80.1,70.3,29.95,NNW,330,0.0,0.0,72,0.00,,---,0.00,VWS V14.00,2013-08-09 22:11:00,
2013-08-09 17:16:00,80.3,69.6,29.95,NNW,330,2.0,2.0,70,0.00,,---,0.00,VWS V14.00,2013-08-09 22:16:00,
2013-08-09 17:21:00,80.5,69.8,29.94,NNW,330,2.0,2.0,70,0.00,,---,0.00,VWS V14.00,2013-08-09 22:21:00,
2013-08-09 17:26:00,80.9,69.8,29.94,NNW,330,0.0,0.0,69,0.00,,---,0.00,VWS V14.00,2013-08-09 22:26:00,
2013-08-09 17:31:00,81.1,70.0,29.95,NNW,330,1.0,1.0,69,0.00,,---,0.00,VWS V14.00,2013-08-09 22:31:00,
2013-08-09 17:36:00,81.4,69.8,29.95,NNW,330,2.0,3.0,68,0.00,,---,0.00,VWS V14.00,2013-08-09 22:36:00,
2013-08-09 17:41:00,81.4,70.3,29.95,NNW,330,0.0,0.0,69,0.00,,---,0.00,VWS V14.00,2013-08-09 22:41:00,
2013-08-09 17:46:00,81.6,70.4,29.95,NNW,330,2.0,3.0,69,0.00,,---,0.00,VWS V14.00,2013-08-09 22:46:00,
2013-08-09 17:51:00,81.6,70.0,29.95,NNW,330,0.0,0.0,68,0.00,,---,0.00,VWS V14.00,2013-08-09 22:51:00,
2013-08-09 17:56:00,81.6,70.4,29.95,NNW,330,5.0,5.0,69,0.00,,---,0.00,VWS V14.00,2013-08-09 22:56:00,
2013-08-09 18:01:00,81.4,69.8,29.95,NNW,330,0.0,0.0,68,0.00,,---,0.00,VWS V14.00,2013-08-09 23:01:00,
2013-08-09 18:06:00,81.6,70.4,29.95,NNW,330,0.0,0.0,69,0.00,,---,0.00,VWS V14.00,2013-08-09 23:06:00,
2013-08-09 18:11:00,81.6,70.0,29.95,NNW,330,0.0,0.0,68,0.00,,---,0.00,VWS V14.00,2013-08-09 23:11:00,
2013-08-09 18:15:00,81.8,70.6,29.95,NNW,330,0.0,0.0,69,0.00,,---,0.00,VWS V14.00,2013-08-09 23:15:00,
2013-08-09 18:20:00,81.6,70.4,29.95,NNW,330,0.0,0.0,69,0.00,,---,0.00,VWS V14.00,2013-08-09 23:20:00,
2013-08-09 18:25:00,81.4,70.3,29.95,NNW,330,0.0,0.0,69,0.00,,---,0.00,VWS V14.00,2013-08-09 23:25:00,
2013-08-09 18:30:00,81.2,70.1,29.96,NNW,330,0.0,0.0,69,0.00,,---,0.00,VWS V14.00,2013-08-09 23:30:00,
2013-08-09 18:35:00,81.1,70.0,29.95,NNW,330,0.0,0.0,69,0.00,,---,0.00,VWS V14.00,2013-08-09 23:35:00,
2013-08-09 18:40:00,81.1,70.4,29.95,NNW,330,0.0,0.0,70,0.00,,---,0.00,VWS V14.00,2013-08-09 23:40:00,
2013-08-09 18:45:00,81.1,70.8,29.95,NNW,330,0.0,0.0,71,0.00,,---,0.00,VWS V14.00,2013-08-09 23:45:00,
2013-08-09 18:50:00,80.9,71.4,29.95,NNW,330,0.0,0.0,73,0.00,,---,0.00,VWS V14.00,2013-08-09 23:50:00,
2013-08-09 18:55:00,80.5,71.1,29.96,NNW,330,0.0,0.0,73,0.00,,---,0.00,VWS V14.00,2013-08-09 23:55:00,
2013-08-09 19:00:00,80.3,71.3,29.96,NNW,330,0.0,0.0,74,0.00,,---,0.00,VWS V14.00,2013-08-10 00:00:00,
2013-08-09 19:05:00,80.1,70.7,29.97,NNW,330,0.0,0.0,73,0.00,,---,0.00,VWS V14.00,2013-08-10 00:05:00,
2013-08-09 19:10:00,79.9,70.1,29.97,NNW,330,0.0,0.0,72,0.00,,---,0.00,VWS V14.00,2013-08-10 00:10:00,
2013-08-09 19:15:00,80.1,71.1,29.97,NNW,330,0.0,0.0,74,0.00,,---,0.00,VWS V14.00,2013-08-10 00:15:00,
2013-08-09 19:20:00,79.9,71.7,29.97,NNW,330,0.0,0.0,76,0.00,,---,0.00,VWS V14.00,2013-08-10 00:20:00,
2013-08-09 19:25:00,79.6,71.8,29.97,NNW,330,0.0,0.0,77,0.00,,---,0.00,VWS V14.00,2013-08-10 00:25:00,
2013-08-09 19:30:00,79.4,71.9,29.97,NNW,330,0.0,0.0,78,0.00,,---,0.00,VWS V14.00,2013-08-10 00:30:00,
2013-08-09 19:35:00,79.2,71.8,29.97,NNW,330,0.0,0.0,78,0.00,,---,0.00,VWS V14.00,2013-08-10 00:35:00,
2013-08-09 19:40:00,79.2,72.1,29.97,NNW,330,0.0,0.0,79,0.00,,---,0.00,VWS V14.00,2013-08-10 00:40:00,
2013-08-09 19:45:00,78.8,72.1,29.97,NNW,330,0.0,0.0,80,0.00,,---,0.00,VWS V14.00,2013-08-10 00:45:00,
2013-08-09 19:50:00,78.6,72.3,29.97,NNW,330,0.0,0.0,81,0.00,,---,0.00,VWS V14.00,2013-08-10 00:50:00,
2013-08-09 19:55:00,78.5,72.2,29.97,NNW,330,0.0,0.0,81,0.00,,---,0.00,VWS V14.00,2013-08-10 00:55:00,
2013-08-09 20:00:00,78.3,72.0,29.97,NNW,330,0.0,0.0,81,0.00,,---,0.00,VWS V14.00,2013-08-10 01:00:00,
2013-08-09 20:05:00,78.1,71.8,29.97,NNW,330,0.0,0.0,81,0.00,,---,0.00,VWS V14.00,2013-08-10 01:05:00,
2013-08-09 20:10:00,77.9,72.0,29.97,NNW,330,0.0,0.0,82,0.00,,---,0.00,VWS V14.00,2013-08-10 01:10:00,
2013-08-09 20:15:00,77.7,71.8,29.97,NNW,330,0.0,0.0,82,0.00,,---,0.00,VWS V14.00,2013-08-10 01:15:00,
2013-08-09 20:20:00,77.6,71.7,29.97,NNW,330,0.0,0.0,82,0.00,,---,0.00,VWS V14.00,2013-08-10 01:20:00,
2013-08-09 20:25:00,77.4,71.8,29.97,NNW,330,0.0,0.0,83,0.00,,---,0.00,VWS V14.00,2013-08-10 01:25:00,
2013-08-09 20:30:00,77.0,71.4,29.97,NNW,330,0.0,0.0,83,0.00,,---,0.00,VWS V14.00,2013-08-10 01:30:00,
2013-08-09 20:35:00,76.7,71.5,29.97,NNW,330,0.0,0.0,84,0.00,,---,0.00,VWS V14.00,2013-08-10 01:35:00,
2013-08-09 20:40:00,76.5,71.7,29.97,NNW,330,0.0,0.0,85,0.00,,---,0.00,VWS V14.00,2013-08-10 01:40:00,
2013-08-09 20:45:00,76.3,71.5,29.97,NNW,330,0.0,0.0,85,0.00,,---,0.00,VWS V14.00,2013-08-10 01:45:00,
2013-08-09 20:50:00,76.1,71.6,29.98,NNW,330,0.0,0.0,86,0.00,,---,0.00,VWS V14.00,2013-08-10 01:50:00,
2013-08-09 20:55:00,76.0,71.5,29.98,NNW,330,0.0,0.0,86,0.00,,---,0.00,VWS V14.00,2013-08-10 01:55:00,
2013-08-09 21:00:00,76.0,71.5,29.99,NNW,330,0.0,0.0,86,0.00,,---,0.00,VWS V14.00,2013-08-10 02:00:00,
2013-08-09 21:05:00,75.8,71.7,29.98,NNW,330,0.0,0.0,87,0.00,,---,0.00,VWS V14.00,2013-08-10 02:05:00,
2013-08-09 21:10:00,75.6,71.5,29.98,NNW,330,0.0,0.0,87,0.00,,---,0.00,VWS V14.00,2013-08-10 02:10:00,
2013-08-09 21:15:00,75.4,71.6,29.99,NNW,330,0.0,0.0,88,0.00,,---,0.00,VWS V14.00,2013-08-10 02:15:00,
2013-08-09 21:20:00,75.3,71.5,29.99,NNW,330,0.0,0.0,88,0.00,,---,0.00,VWS V14.00,2013-08-10 02:20:00,
2013-08-09 21:25:00,75.1,71.6,29.99,NNW,330,0.0,0.0,89,0.00,,---,0.00,VWS V14.00,2013-08-10 02:25:00,
2013-08-09 21:30:00,75.1,71.6,29.99,NNW,330,0.0,0.0,89,0.00,,---,0.00,VWS V14.00,2013-08-10 02:30:00,
2013-08-09 21:35:00,75.1,71.6,29.99,NNW,330,0.0,0.0,89,0.00,,---,0.00,VWS V14.00,2013-08-10 02:35:00,
2013-08-09 21:40:00,75.1,72.0,29.99,NNW,330,0.0,0.0,90,0.00,,---,0.00,VWS V14.00,2013-08-10 02:40:00,
2013-08-09 21:45:00,75.1,72.0,29.99,NNW,330,0.0,0.0,90,0.00,,---,0.00,VWS V14.00,2013-08-10 02:45:00,
2013-08-09 21:50:00,74.9,71.8,29.99,NNW,330,0.0,0.0,90,0.00,,---,0.00,VWS V14.00,2013-08-10 02:50:00,
2013-08-09 21:55:00,74.9,71.8,30.00,NNW,330,0.0,0.0,90,0.00,,---,0.00,VWS V14.00,2013-08-10 02:55:00,
2013-08-09 22:00:00,74.7,71.6,29.99,NNW,330,0.0,0.0,90,0.00,,---,0.00,VWS V14.00,2013-08-10 03:00:00,
2013-08-09 22:05:00,74.6,71.5,29.99,NNW,330,0.0,0.0,90,0.00,,---,0.00,VWS V14.00,2013-08-10 03:05:00,
2013-08-09 22:06:00,74.6,71.5,30.00,NNW,330,0.0,0.0,90,0.00,,---,0.00,VWS V14.00,2013-08-10 03:06:00,
2013-08-09 22:11:00,74.6,71.5,30.00,NNW,330,0.0,0.0,90,0.00,,---,0.00,VWS V14.00,2013-08-10 03:11:00,
2013-08-09 22:16:00,74.6,71.8,30.00,NNW,330,0.0,0.0,91,0.00,,---,0.00,VWS V14.00,2013-08-10 03:16:00,
2013-08-09 22:21:00,74.4,71.6,30.00,NNW,330,0.0,0.0,91,0.00,,---,0.00,VWS V14.00,2013-08-10 03:21:00,
2013-08-09 22:26:00,74.4,71.6,30.00,NNW,330,0.0,0.0,91,0.00,,---,0.00,VWS V14.00,2013-08-10 03:26:00,
2013-08-09 22:31:00,74.2,71.4,30.00,NNW,330,0.0,0.0,91,0.00,,---,0.00,VWS V14.00,2013-08-10 03:31:00,
2013-08-09 22:36:00,74.2,71.1,30.00,NNW,330,0.0,0.0,90,0.00,,---,0.00,VWS V14.00,2013-08-10 03:36:00,
2013-08-09 22:41:00,74.2,71.1,30.00,NNW,330,0.0,0.0,90,0.00,,---,0.00,VWS V14.00,2013-08-10 03:41:00,
2013-08-09 22:46:00,74.4,71.3,30.00,NNW,330,0.0,0.0,90,0.00,,---,0.00,VWS V14.00,2013-08-10 03:46:00,
2013-08-09 22:51:00,74.4,71.3,30.00,NNW,330,0.0,0.0,90,0.00,,---,0.00,VWS V14.00,2013-08-10 03:51:00,
2013-08-09 22:56:00,74.6,71.2,30.00,NNW,330,0.0,0.0,89,0.00,,---,0.00,VWS V14.00,2013-08-10 03:56:00,
2013-08-09 23:01:00,74.6,71.2,30.00,NNW,330,0.0,0.0,89,0.00,,---,0.00,VWS V14.00,2013-08-10 04:01:00,
2013-08-09 23:06:00,74.6,71.2,30.00,NNW,330,0.0,0.0,89,0.00,,---,0.00,VWS V14.00,2013-08-10 04:06:00,
2013-08-09 23:11:00,74.6,71.2,30.00,NNW,330,0.0,0.0,89,0.00,,---,0.00,VWS V14.00,2013-08-10 04:11:00,
2013-08-09 23:16:00,74.6,71.2,30.01,NNW,330,0.0,0.0,89,0.00,,---,0.00,VWS V14.00,2013-08-10 04:16:00,
2013-08-09 23:21:00,74.6,71.2,30.01,NNW,330,5.0,5.0,89,0.00,,---,0.00,VWS V14.00,2013-08-10 04:21:00,
2013-08-09 23:26:00,74.6,71.2,30.01,NNW,330,0.0,0.0,89,0.00,,---,0.00,VWS V14.00,2013-08-10 04:26:00,
2013-08-09 23:31:00,74.6,71.2,30.01,NNW,330,0.0,0.0,89,0.00,,---,0.00,VWS V14.00,2013-08-10 04:31:00,
2013-08-09 23:36:00,74.6,71.2,30.01,NNW,330,0.0,0.0,89,0.00,,---,0.00,VWS V14.00,2013-08-10 04:36:00,
2013-08-09 23:41:00,74.6,71.2,30.01,NNW,330,0.0,0.0,89,0.00,,---,0.00,VWS V14.00,2013-08-10 04:41:00,
2013-08-09 23:46:00,74.4,70.9,30.01,NNW,330,2.0,3.0,89,0.00,,---,0.00,VWS V14.00,2013-08-10 04:46:00,
2013-08-09 23:51:00,74.4,70.9,30.01,NNW,330,5.0,5.0,89,0.00,,---,0.00,VWS V14.00,2013-08-10 04:51:00,
2013-08-09 23:56:00,74.4,70.9,30.01,NNW,330,0.0,2.0,89,0.00,,---,0.00,VWS V14.00,2013-08-10 04:56:00,